Change the Weather History Date:

Thursday, October 25, 2012

  Actual Average (KITH) Record (KITH)
Temperature  
Mean Temperature 66 °F -  
Max Temperature 78 °F 57 °F 78 °F (1963)
Min Temperature 53 °F 37 °F 22 °F (1982)
Growing Degree Days 16 (Base 50)    
Moisture  
Dew Point 55 °F    
Average Humidity 87    
Maximum Humidity 100    
Minimum Humidity 45    
Precipitation  
Precipitation 0.00 in - - ()
Sea Level Pressure  
Sea Level Pressure 30.11 in    
Wind  
Wind Speed 4 mph (South)    
Max Wind Speed 13 mph    
Max Gust Speed 22 mph    
Visibility 4 miles    
Events Fog    
Averages and records for this station are not official NWS values.
T = Trace of Precipitation, MM = Missing Value Source: NWS Daily Summary

Daily Weather History Graph

Daily Weather History Graph

Search for Another Location

Airport or City:

Trip Planner

Search our weather history database for the weather conditions in past years. The results will help you decide how hot, cold, wet, or windy it might be!

Date:

Astronomy

Oct. 25, 2012 Rise Set
Actual Time 7:33 AM EDT 6:09 PM EDT
Civil Twilight 7:04 AM EDT 6:38 PM EDT
Nautical Twilight 6:31 AM EDT 7:11 PM EDT
Astronomical Twilight 5:59 AM EDT 7:44 PM EDT
Moon 3:59 PM EDT (10/25) 3:23 AM EDT (10/25)
Length of Visible Light 11h 33m
Length of Day
10h 35m
Waxing Gibbous, 84% of the Moon is Illuminated
Oct 25
Waxing Gibbous
Oct 29
Full
Nov 6
Last Quarter
Nov 13
New
Nov 20
First Quarter

Hourly Weather History & Observations

Time (EDT) Temp. Dew Point Humidity Pressure Visibility Wind Dir Wind Speed Gust Speed Precip Events Conditions
12:53 AM 55.9 °F 55.0 °F 97% 30.14 in 1.5 mi Calm Calm - N/A   Overcast
1:29 AM 55.4 °F 55.4 °F 100% 30.13 in 0.2 mi South 3.5 mph - N/A Fog Fog
1:49 AM 55.4 °F 55.4 °F 100% 30.13 in 1.2 mi South 4.6 mph - N/A   Overcast
1:53 AM 55.9 °F 55.0 °F 97% 30.13 in 1.2 mi South 5.8 mph - N/A   Overcast
1:56 AM 55.4 °F 55.4 °F 100% 30.13 in 0.8 mi South 5.8 mph - N/A   Overcast
2:15 AM 55.4 °F 55.4 °F 100% 30.13 in 1.5 mi Calm Calm - N/A   Overcast
2:28 AM 55.4 °F 55.4 °F 100% 30.13 in 2.0 mi Calm Calm - N/A   Overcast
2:39 AM 55.4 °F 53.6 °F 94% 30.13 in 2.5 mi Calm Calm - N/A   Overcast
2:53 AM 55.9 °F 55.0 °F 97% 30.13 in 2.0 mi SSW 3.5 mph - N/A   Overcast
3:03 AM 55.4 °F 53.6 °F 94% 30.12 in 0.8 mi Calm Calm - N/A   Overcast
3:35 AM 55.4 °F 55.4 °F 100% 30.12 in 2.0 mi Calm Calm - N/A   Overcast
3:37 AM 55.4 °F 55.4 °F 100% 30.12 in 3.0 mi Calm Calm - N/A   Overcast
3:53 AM 55.9 °F 55.0 °F 97% 30.12 in 2.5 mi Calm Calm - N/A   Overcast
3:56 AM 55.4 °F 55.4 °F 100% 30.12 in 1.8 mi Calm Calm - N/A   Overcast
4:08 AM 55.4 °F 53.6 °F 94% 30.12 in 0.5 mi Calm Calm - N/A Fog Fog
4:42 AM 55.4 °F 53.6 °F 94% 30.12 in 0.2 mi Calm Calm - N/A Fog Fog
4:53 AM 53.1 °F 53.1 °F 100% 30.12 in 0.5 mi SSE 3.5 mph - N/A Fog Fog
5:03 AM 55.4 °F 53.6 °F 94% 30.12 in 2.0 mi South 4.6 mph - N/A   Overcast
5:06 AM 55.4 °F 55.4 °F 100% 30.12 in 3.0 mi South 5.8 mph - N/A   Overcast
5:23 AM 53.6 °F 53.6 °F 100% 30.12 in 2.0 mi Calm Calm - N/A   Scattered Clouds
5:30 AM 53.6 °F 53.6 °F 100% 30.12 in 1.0 mi Calm Calm - N/A   Partly Cloudy
5:41 AM 57.2 °F 55.4 °F 94% 30.12 in 3.0 mi SSW 5.8 mph - N/A   Partly Cloudy
5:53 AM 57.0 °F 55.9 °F 96% 30.12 in 3.0 mi Calm Calm - N/A   Partly Cloudy
6:03 AM 55.4 °F 55.4 °F 100% 30.12 in 2.5 mi SW 3.5 mph - N/A   Clear
6:10 AM 55.4 °F 55.4 °F 100% 30.12 in 2.0 mi SW 5.8 mph - N/A   Clear
6:16 AM 55.4 °F 55.4 °F 100% 30.12 in 3.0 mi SW 5.8 mph - N/A   Clear
6:53 AM 57.9 °F 57.0 °F 97% 30.12 in 6.0 mi SSW 9.2 mph - N/A   Clear
7:53 AM 59.0 °F 57.0 °F 93% 30.14 in 5.0 mi SSW 8.1 mph - N/A   Partly Cloudy
8:53 AM 60.1 °F 57.0 °F 90% 30.14 in 7.0 mi SSW 9.2 mph - N/A   Clear
10:53 AM 68.0 °F 57.0 °F 68% 30.14 in 10.0 mi SSW 9.2 mph - N/A   Clear
11:53 AM 71.1 °F 57.0 °F 61% 30.13 in 10.0 mi SSW 8.1 mph - N/A   Clear
12:53 PM 73.9 °F 57.0 °F 55% 30.11 in 10.0 mi SSW 10.4 mph - N/A   Clear
1:53 PM 75.9 °F 57.0 °F 52% 30.08 in 10.0 mi SSW 9.2 mph - N/A   Clear
2:53 PM 78.1 °F 55.0 °F 45% 30.07 in 10.0 mi SSW 9.2 mph - N/A   Clear
3:53 PM 75.0 °F 60.1 °F 60% 30.06 in 10.0 mi SE 8.1 mph - N/A   Clear
4:53 PM 73.9 °F 57.9 °F 57% 30.05 in 10.0 mi SE 9.2 mph - N/A   Clear
5:53 PM 70.0 °F 55.9 °F 61% 30.05 in 10.0 mi SE 5.8 mph - N/A   Clear
6:53 PM 68.0 °F 54.0 °F 61% 30.07 in 10.0 mi SSE 11.5 mph - N/A   Clear
7:53 PM 64.0 °F 54.0 °F 70% 30.07 in 10.0 mi South 8.1 mph - N/A   Clear
9:53 PM 61.0 °F 54.0 °F 78% 30.09 in 10.0 mi South 12.7 mph 21.9 mph N/A   Clear
10:53 PM 60.1 °F 53.1 °F 78% 30.08 in 8.0 mi South 11.5 mph - N/A   Clear
11:53 PM 60.1 °F 53.1 °F 78% 30.08 in 8.0 mi South 11.5 mph - N/A   Partly Cloudy